sat.trackr.live / text

‹ back to catalog

STARLINK-36631

NORAD 67602 · 2026-018P

PAYLOAD ACTIVE UNKNOWN

§ Identity

Operator
Country
US
Launch date
2026-01-29
Launch site
AFWTR
Launch vehicle
Mass (kg)
RCS (m²)

Purposes: comms

External: N2YO · Heavens-Above · Gunter

§ Orbital elements

Epoch: 2026-09-18T23:55:14.972448Z

Period
93.91 min
Inclination
97.2859°
Eccentricity
0.0000473
Mean motion
15.33448199 rev/d
Perigee alt
465.2 km
Apogee alt
465.9 km
Semi-major
6,843.7 km
B*
5.1444e-4
RAAN
325.5341°
Arg perigee
108.2125°
Mean anomaly
251.9169°
Rev number
3,696

§ Raw data

STARLINK-366311 67602U 26018P   26261.99670107  .00016571  00000+0  51444-3 0  99942 67602  97.2859 325.5341 0000473 108.2125 251.9169 15.33448199 36963

JSON: /api/v1/satellites/67602 · /tle

For live sub-satellite position, see the globe view (requires WebGL).

§ Visibility from observer

Set your observer location to see the next 7 days of passes ≥ 10°. The values pass through the URL so the page stays shareable.

No JS? Fill the form by hand. The geolocation button needs JavaScript.